Wind_Speed
75 74 73 72 70 69 67 64 61 56 57 63 63 55 50 50 48 45 47 39 50 59 61 67 48 57 59 63 58 54 49 42 39 34 30 27 22 16
83 82 79 76 74 72 71 68 65 63 59 64 67 65 56 52 53 51 50 47 45 58 59 67 66 55 52 60 63 57 52 47 43 37 33 29 25 19
83 83 81 79 76 75 74 72 70 69 65 66 68 71 67 59 54 56 55 57 47 58 65 68 72 54 55 52 68 61 56 50 46 40 36 32 28 23
84 84 82 82 80 78 76 74 74 73 73 70 69 72 73 68 61 62 60 61 56 54 67 65 73 54 61 59 67 65 60 54 49 44 39 36 32 26
82 81 81 81 80 79 78 76 74 73 73 73 68 70 75 75 71 68 70 64 64 54 67 70 77 73 63 63 64 67 64 59 53 49 43 40 35 29
79 80 80 80 81 80 79 78 76 75 74 72 70 70 74 80 78 74 73 73 69 62 61 73 76 84 74 64 59 70 67 64 57 52 47 43 38 33
79 80 80 80 80 80 80 79 79 77 75 75 71 68 73 80 81 75 77 74 69 62 60 77 74 70 78 73 65 58 69 67 62 56 51 47 41 36
81 80 80 82 84 85 84 84 83 82 79 78 75 72 76 82 81 76 73 77 67 62 62 75 77 72 73 63 67 60 63 72 67 60 55 50 45 39
73 74 74 76 76 76 80 87 90 89 86 83 81 79 78 84 85 79 75 76 68 64 64 74 80 76 83 67 72 68 70 71 72 65 59 55 50 43
66 66 67 67 68 71 73 74 73 78 88 91 87 84 83 87 86 82 79 76 70 68 67 72 82 79 80 74 75 66 66 67 74 69 64 59 54 47
52 52 51 49 50 55 61 63 64 66 72 76 89 89 88 90 89 86 80 81 74 72 69 72 85 83 75 82 79 82 71 67 66 75 68 64 58 52
50 49 48 47 46 48 52 52 52 53 61 69 73 83 91 92 92 89 82 82 78 75 73 73 89 86 81 81 81 80 75 74 68 74 71 68 63 57
54 51 48 48 46 46 47 45 44 46 49 56 63 69 85 94 95 91 85 83 82 79 75 77 91 83 79 84 86 79 77 71 73 76 81 70 69 61
44 48 50 50 49 49 49 47 44 45 46 50 55 63 71 94 97 92 88 84 84 82 78 81 91 76 77 81 83 86 84 76 69 74 74 78 76 65
38 37 41 46 49 50 51 51 51 49 48 47 50 55 67 82 100 95 89 87 86 84 80 81 94 84 71 83 90 89 89 83 72 76 72 74 75 69
35 35 37 40 42 46 50 52 52 52 52 51 50 53 61 72 99 99 90 91 88 86 81 79 91 87 72 85 94 94 95 88 79 73 75 74 70 72
34 33 33 34 36 40 44 47 48 49 49 48 50 53 58 70 85 102 93 91 90 87 81 79 79 94 80 81 95 93 94 92 88 79 73 73 68 72
30 30 30 31 32 34 36 40 43 45 45 47 49 50 55 64 75 98 97 92 89 87 82 77 85 96 79 82 96 93 98 95 93 85 78 73 70 68
30 31 30 30 30 33 34 36 38 42 45 46 45 48 55 62 71 89 98 93 88 85 82 76 82 104 85 76 84 97 97 95 91 83 80 75 69 65
26 27 27 27 27 29 32 34 36 38 40 40 42 48 54 59 68 82 98 94 89 83 79 77 77 94 82 72 73 99 102 96 91 81 75 72 68 70
23 22 22 23 25 27 29 31 32 34 35 35 38 45 50 56 65 75 95 94 89 81 77 75 73 89 98 84 78 89 103 97 94 80 79 73 71 67
20 19 19 19 20 21 24 26 28 30 31 33 36 42 48 54 61 72 91 94 88 78 75 75 75 85 87 87 73 81 100 98 90 82 78 68 65 73
19 18 16 15 15 15 15 18 21 24 28 32 36 41 47 52 59 68 85 91 87 76 75 73 75 85 91 77 66 78 99 99 92 84 81 73 64 67
Wind_Direction
268 267 267 267 265 264 262 258 257 253 251 255 258 256 254 257 257 259 261 257 230 223 217 217 216 212 218 216 219 218 218 216 220 221 223 230 236 244
268 268 266 264 261 259 256 253 252 250 247 247 252 254 252 250 253 255 257 256 242 225 221 228 220 210 215 219 216 218 217 215 217 218 222 226 232 237
273 271 269 268 265 261 258 254 250 249 245 241 245 251 250 245 245 247 251 253 248 229 224 221 217 213 212 222 214 217 216 215 217 216 219 224 229 234
278 276 276 275 274 271 268 264 259 253 248 242 241 245 250 247 241 240 242 248 248 238 222 223 215 205 207 215 213 216 216 216 216 217 218 223 228 233
271 271 271 269 267 265 265 263 260 257 254 249 243 242 244 247 242 236 237 241 247 242 226 220 219 206 203 208 213 215 216 217 215 217 218 222 226 230
268 268 266 265 264 262 260 258 256 253 252 249 245 240 241 242 243 236 234 237 244 242 233 220 219 228 211 209 213 213 215 217 215 217 218 221 224 228
266 264 262 261 259 258 256 253 252 249 247 247 241 234 235 237 240 237 231 235 238 239 235 221 218 221 221 209 212 215 216 217 216 216 218 221 222 224
267 265 264 262 258 255 252 250 247 245 241 239 236 228 227 229 234 234 230 232 230 232 232 223 216 214 215 208 206 214 219 216 217 215 217 221 222 222
275 273 271 268 266 262 257 252 248 245 242 237 233 227 223 227 229 229 226 228 225 222 229 222 214 211 214 212 205 210 216 217 216 215 216 220 222 221
274 273 271 269 267 265 261 257 252 248 245 240 233 227 223 225 225 225 223 223 220 218 224 221 215 207 214 212 201 200 207 214 215 215 216 219 220 220
272 270 269 267 262 259 259 257 254 251 246 243 237 228 223 223 224 223 221 220 216 214 221 217 212 207 211 207 209 205 205 212 218 211 215 218 220 219
271 270 268 265 261 258 257 257 253 249 245 242 238 232 222 221 223 222 219 219 213 211 215 215 210 206 207 210 208 205 207 210 210 211 214 216 221 220
268 266 262 261 259 257 256 256 254 251 248 243 238 233 223 219 222 220 217 217 212 210 212 214 209 204 210 210 207 202 200 206 212 216 210 215 217 219
269 263 259 257 257 255 253 253 251 248 248 245 238 231 226 217 221 220 215 214 211 209 211 212 209 199 208 210 208 206 208 210 212 212 217 212 212 215
272 268 262 256 255 254 253 250 248 247 247 246 242 233 224 219 219 219 214 211 211 209 211 211 211 204 205 212 209 209 201 209 209 210 212 219 218 207
277 272 266 260 256 253 251 249 248 246 246 243 242 236 227 220 216 217 213 211 209 210 212 210 211 208 205 210 206 203 203 203 207 210 213 215 215 209
281 278 273 268 262 256 252 249 246 243 241 241 240 236 228 219 216 215 211 210 208 210 212 212 208 197 196 199 199 203 200 204 206 210 214 212 207 209
287 285 279 271 264 259 254 249 246 242 240 236 235 231 223 218 215 213 209 208 206 210 212 211 206 200 191 195 198 202 201 204 208 207 211 211 205 207
288 286 282 275 266 259 255 247 244 242 239 241 232 222 215 212 212 211 208 206 205 208 211 211 207 209 189 190 197 199 200 206 207 207 205 206 204 205
294 290 284 276 267 258 253 250 243 240 241 237 228 216 210 208 209 208 206 204 204 206 210 210 210 215 189 195 202 197 196 204 207 206 209 204 198 203
305 297 286 276 268 260 254 249 244 238 237 230 221 213 207 206 206 206 204 204 205 205 207 209 210 215 204 203 196 196 196 201 206 205 206 203 201 202
315 306 295 285 275 265 256 249 242 235 230 223 216 210 206 203 202 203 202 204 205 203 204 208 209 211 215 196 197 198 198 198 203 206 205 206 208 206
324 319 310 300 289 276 264 252 240 230 223 217 213 209 204 200 200 199 200 204 205 201 202 208 207 211 207 191 196 200 199 200 200 202 204 203 202 199
Height
5617 5620 5623 5623 5626 5629 5632 5637 5643 5650 5653 5645 5646 5655 5663 5665 5667 5671 5672 5675 5682 5692 5697 5706 5712 5718 5728 5739 5748 5757 5763 5772 5778 5783 5789 5794 5797 5800
5590 5592 5595 5598 5601 5603 5607 5613 5619 5626 5636 5634 5631 5633 5643 5651 5653 5658 5660 5663 5668 5676 5687 5691 5702 5709 5718 5727 5739 5749 5756 5764 5772 5776 5783 5789 5793 5797
5563 5565 5569 5570 5576 5579 5581 5587 5594 5599 5610 5618 5619 5615 5622 5633 5639 5644 5647 5649 5655 5661 5672 5681 5688 5698 5706 5717 5728 5739 5748 5756 5765 5770 5777 5784 5788 5793
5539 5539 5543 5544 5550 5553 5556 5561 5567 5574 5584 5595 5600 5600 5601 5609 5621 5627 5633 5635 5641 5648 5657 5667 5678 5683 5694 5704 5718 5730 5740 5748 5757 5764 5771 5778 5784 5789
5514 5515 5515 5516 5521 5524 5528 5534 5539 5546 5556 5568 5580 5582 5582 5586 5598 5608 5615 5620 5624 5633 5640 5651 5663 5669 5682 5693 5706 5719 5729 5739 5749 5757 5765 5771 5778 5784
5487 5488 5488 5489 5491 5494 5498 5505 5510 5517 5525 5536 5551 5561 5562 5565 5573 5585 5596 5604 5610 5615 5623 5633 5644 5652 5665 5679 5695 5706 5718 5729 5740 5749 5757 5765 5772 5779
5458 5460 5461 5462 5463 5466 5469 5475 5479 5488 5497 5506 5519 5532 5539 5544 5547 5558 5574 5582 5591 5600 5608 5616 5628 5642 5656 5670 5682 5695 5708 5720 5731 5740 5750 5758 5765 5773
5430 5431 5432 5431 5434 5435 5439 5443 5449 5457 5468 5476 5488 5503 5513 5518 5524 5534 5550 5561 5573 5584 5592 5602 5614 5627 5642 5653 5670 5685 5696 5708 5720 5730 5741 5750 5758 5766
5400 5400 5401 5401 5401 5402 5406 5412 5419 5427 5436 5448 5459 5473 5486 5489 5500 5512 5525 5539 5554 5564 5575 5586 5599 5612 5626 5639 5651 5670 5685 5695 5709 5720 5731 5741 5750 5758
5374 5374 5373 5375 5374 5374 5377 5382 5389 5397 5407 5416 5429 5445 5457 5463 5476 5489 5502 5517 5533 5545 5557 5570 5581 5596 5608 5624 5641 5656 5673 5683 5696 5709 5721 5731 5741 5750
5354 5353 5353 5353 5354 5352 5352 5357 5365 5375 5378 5385 5396 5415 5430 5439 5450 5465 5483 5496 5513 5525 5538 5553 5563 5578 5592 5607 5620 5636 5658 5672 5683 5698 5710 5721 5732 5740
5335 5336 5335 5335 5336 5336 5335 5339 5346 5352 5353 5359 5370 5384 5403 5416 5427 5444 5462 5476 5492 5506 5518 5535 5546 5562 5577 5592 5609 5628 5643 5658 5671 5684 5698 5710 5720 5730
5317 5317 5318 5317 5319 5320 5321 5326 5331 5332 5336 5340 5349 5361 5377 5392 5404 5421 5440 5454 5471 5486 5498 5514 5529 5546 5559 5575 5595 5615 5629 5641 5656 5668 5683 5696 5709 5722
5298 5298 5300 5301 5302 5304 5306 5311 5314 5316 5320 5325 5331 5341 5353 5370 5382 5397 5417 5434 5452 5467 5480 5494 5513 5529 5544 5559 5578 5595 5612 5628 5642 5656 5667 5681 5695 5708
5283 5282 5282 5283 5285 5287 5289 5293 5297 5302 5305 5310 5317 5324 5334 5346 5357 5375 5397 5416 5434 5450 5465 5480 5496 5513 5527 5543 5560 5577 5594 5610 5626 5641 5655 5668 5684 5696
5270 5269 5268 5269 5269 5270 5271 5275 5280 5285 5289 5295 5301 5307 5313 5326 5340 5355 5377 5396 5415 5433 5447 5464 5480 5498 5512 5526 5540 5558 5577 5589 5610 5628 5643 5655 5672 5686
5257 5256 5255 5254 5254 5255 5256 5259 5263 5267 5272 5279 5284 5289 5296 5307 5320 5337 5360 5378 5400 5417 5433 5448 5465 5484 5497 5508 5523 5542 5562 5578 5594 5613 5628 5643 5659 5675
5246 5244 5242 5241 5240 5240 5242 5244 5247 5251 5256 5261 5266 5271 5279 5290 5303 5320 5343 5363 5385 5401 5418 5433 5450 5464 5478 5493 5513 5530 5549 5566 5583 5597 5615 5633 5649 5662
5237 5234 5231 5230 5228 5228 5228 5230 5233 5237 5240 5245 5251 5256 5264 5275 5288 5304 5328 5350 5371 5388 5404 5419 5434 5446 5463 5484 5502 5519 5539 5556 5572 5589 5604 5620 5638 5653
5229 5225 5221 5219 5218 5217 5217 5218 5221 5224 5228 5233 5238 5244 5253 5264 5276 5292 5315 5337 5357 5375 5391 5407 5422 5438 5456 5475 5490 5508 5528 5544 5561 5582 5597 5610 5623 5636
5221 5217 5213 5210 5208 5207 5207 5208 5210 5214 5218 5223 5229 5236 5245 5254 5267 5281 5302 5323 5344 5363 5383 5399 5413 5424 5439 5457 5475 5492 5511 5530 5550 5570 5585 5600 5611 5622
5216 5212 5207 5204 5201 5200 5199 5200 5201 5205 5209 5215 5221 5228 5236 5247 5259 5273 5294 5314 5335 5355 5373 5386 5399 5411 5428 5447 5467 5480 5499 5515 5539 5557 5572 5593 5610 5616
5212 5208 5203 5200 5197 5194 5193 5194 5195 5198 5203 5208 5214 5221 5229 5240 5252 5267 5287 5306 5326 5346 5362 5376 5390 5403 5422 5439 5454 5471 5488 5504 5524 5539 5556 5573 5587 5599